Location: PACMO
(41.3967°N, 90.3760°W)
Time: 16:34:50
(UTC-05:00)

Amateur Radio Satellites - All Passes

Search period start: 26 April 2017 16:04
Search period end: 27 April 2017 16:04
Location: PACMO, 41.3967°N, 90.3760°W

Satellite Date Start Highest point End Downlink Frequencies (MHz)
Time Altitude Azimuth
MOZHAYETS 4 26 Apr 16:07:44 16:12:08 43° 98° (E) 16:16:32
ITAMSAT 1 26 Apr 16:10:09 16:15:01 41° 261° (W) 16:19:55 435.822/435.867
BEESAT 26 Apr 16:12:08 16:16:56 85° 285° (WNW) 16:21:42 436.000
KKS-1 26 Apr 16:25:11 16:25:20 10° 89° (E) 16:25:30 437.445
BEESAT 2 26 Apr 16:28:32 16:30:58 15° 318° (NW) 16:33:27 435.950
ITUPSAT 1 26 Apr 16:52:59 16:57:19 35° 291° (WNW) 17:01:38 437.325
AO-7 26 Apr 16:56:07 17:03:16 32° 264° (W) 17:10:29 .
CUBESAT XI-V 26 Apr 16:58:28 17:02:25 26° 95° (E) 17:06:21 437.345
SO-50 26 Apr 17:00:23 17:03:29 18° 249° (WSW) 17:06:35 436.795
XW-2F 26 Apr 17:17:39 17:19:22 13° 65° (ENE) 17:21:04 145.980 - 146.000
CUTE-I 26 Apr 17:17:42 17:21:34 21° 62° (ENE) 17:25:23 437.470
RS-15 26 Apr 17:28:18 17:40:26 72° 244° (WSW) 17:51:57 29.354- 29.394
NUDT-PHONESAT 26 Apr 17:29:19 17:31:17 14° 66° (ENE) 17:33:17 437.300
DOVE 4 26 Apr 17:35:43 17:40:45 46° 72° (ENE) 17:45:43 437.250
MOZHAYETS 4 26 Apr 17:45:40 17:48:58 20° 295° (WNW) 17:52:17
BEESAT 26 Apr 17:53:23 17:53:55 10° 302° (WNW) 17:54:27 436.000
KKS-1 26 Apr 17:57:57 18:02:23 73° 286° (WNW) 18:06:47 437.445
YUBILEINY 26 Apr 18:03:15 18:09:05 20° 282° (WNW) 18:14:56 435.215
XW-2D 26 Apr 18:05:01 18:08:38 50° 74° (ENE) 18:12:16 145.860 - 145.880
XW-2B 26 Apr 18:11:53 18:15:33 60° 75° (ENE) 18:19:15 145.730 - 145.750
HO-68 26 Apr 18:12:33 18:18:00 24° 58° (ENE) 18:23:29 435.675
KAITUO 1B 26 Apr 18:21:47 18:25:25 63° 76° (ENE) 18:29:05 145.475/437.950
LilacSat-2 26 Apr 18:22:38 18:26:24 89° 77° (ENE) 18:30:11 437.200
XW-2C 26 Apr 18:23:44 18:27:28 87° 68° (ENE) 18:31:14 145.795 - 145.815
STARS 26 Apr 18:30:04 18:34:26 76° 286° (WNW) 18:38:46 437.465
CUBESAT XI-V 26 Apr 18:35:36 18:39:47 32° 291° (WNW) 18:43:57 437.345
XW-2F 26 Apr 18:49:32 18:53:06 44° 261° (W) 18:56:42 145.980 - 146.000
CUTE-I 26 Apr 18:55:56 19:01:10 55° 259° (W) 19:06:25 437.470
NUDT-PHONESAT 26 Apr 19:01:27 19:04:53 37° 262° (W) 19:08:20 437.300
CUTE 1.7 + AOD 2 26 Apr 19:03:42 19:07:26 31° 70° (ENE) 19:11:10 437.475
NO-84 26 Apr 19:05:03 19:07:57 21° 129° (SE) 19:10:40 435.350 FM
STRAND 1 26 Apr 19:09:44 19:11:52 12° 89° (E) 19:14:01 437.568
XW-2A 26 Apr 19:12:35 19:15:41 35° 73° (ENE) 19:18:47 145.665 - 145.685
DOVE 4 26 Apr 19:14:25 19:18:33 23° 267° (W) 19:22:41 437.250
SEEDS 26 Apr 19:23:47 19:27:32 33° 71° (ENE) 19:31:21 437.485
M-CUBED/EXP-1 PRIME 26 Apr 19:37:17 19:39:13 13° 94° (E) 19:41:04 437.505
Oscar 11 26 Apr 19:41:08 19:41:38 10° 61° (ENE) 19:42:08 .
XW-2D 26 Apr 19:42:26 19:43:07 10° 270° (W) 19:43:49 145.860 - 145.880
RS-15 26 Apr 19:44:18 19:50:27 16° 265° (W) 19:56:29 29.354- 29.394
O/OREOS (USA 219) 26 Apr 19:48:37 19:52:38 29° 59° (ENE) 19:56:36 437.305
UWE-3 26 Apr 19:55:33 19:59:21 32° 71° (ENE) 20:03:06 435.000/436.395/437.385
HO-68 26 Apr 19:57:58 20:05:05 70° 256° (WSW) 20:12:16 435.675
CUBEBUG 2 26 Apr 20:08:03 20:12:25 77° 77° (ENE) 20:16:41 437.445
AAUSAT CUBESAT 2 26 Apr 20:31:19 20:35:28 86° 262° (W) 20:39:39 437.432
CUTE 1.7 + AOD 2 26 Apr 20:40:01 20:43:17 22° 266° (W) 20:46:34 437.475
NO-84 26 Apr 20:41:51 20:45:20 43° 323° (NW) 20:48:34 435.350 FM
STRAND 1 26 Apr 20:46:29 20:51:35 75° 286° (WNW) 20:56:40 437.568
XW-2A 26 Apr 20:47:27 20:48:35 11° 268° (W) 20:49:45 145.665 - 145.685
ZACube-1 26 Apr 20:50:33 20:54:45 77° 74° (ENE) 20:58:54 437.345
AO-73 26 Apr 20:57:25 21:01:37 84° 74° (ENE) 21:05:46 145.935
AO-85 26 Apr 20:59:08 21:02:30 26° 48° (NE) 21:05:58 145.980
SEEDS 26 Apr 21:00:12 21:03:18 20° 267° (W) 21:06:25 437.485
M-CUBED/EXP-1 PRIME 26 Apr 21:09:57 21:14:02 50° 293° (WNW) 21:17:47 437.505
Oscar 11 26 Apr 21:12:49 21:17:06 79° 258° (WSW) 21:21:26 .
DELFI C3 26 Apr 21:15:52 21:19:21 30° 70° (ENE) 21:22:52 145.870
O/OREOS (USA 219) 26 Apr 21:28:03 21:31:58 28° 257° (WSW) 21:35:50 437.305
BEESAT 3 26 Apr 21:31:18 21:33:14 13° 40° (NE) 21:35:09 437.485
UWE-3 26 Apr 21:32:38 21:35:51 21° 266° (W) 21:39:03 435.000/436.395/437.385
HO-68 26 Apr 21:52:44 21:54:00 10° 274° (W) 21:55:17 435.675
OBJECT BX 26 Apr 21:56:00 21:59:36 68° 76° (ENE) 22:03:14 145.990 - 145.960
PRISM 26 Apr 22:22:08 22:26:00 37° 98° (E) 22:29:50 437.425
NO-84 26 Apr 22:22:34 22:23:32 11° 341° (NNW) 22:24:28 435.350 FM
TIGRISAT 26 Apr 22:35:12 22:39:00 30° 97° (E) 22:42:49 435.000
ESTCUBE 1 26 Apr 22:38:05 22:41:17 20° 65° (ENE) 22:44:31 437.505/2401.250
AO-85 26 Apr 22:39:21 22:42:52 29° 244° (WSW) 22:46:30 145.980
DELFI C3 26 Apr 22:51:11 22:54:09 20° 266° (W) 22:57:09 145.870
UNISAT 6 26 Apr 22:56:09 23:00:23 57° 101° (E) 23:04:40 437.425
LO-87 26 Apr 22:59:33 23:03:05 52° 75° (ENE) 23:06:38 145.935 - 145.965
FO-29 26 Apr 23:00:12 23:05:12 45° 99° (E) 23:10:31 435.910
BEESAT 2 26 Apr 23:06:31 23:10:20 38° 51° (NE) 23:14:07 435.950
BEESAT 3 26 Apr 23:07:20 23:11:22 82° 239° (WSW) 23:15:21 437.485
DX 1 26 Apr 23:44:35 23:45:41 11° 60° (ENE) 23:46:48 434.975-435.025
SPROUT 26 Apr 23:51:46 23:55:26 29° 69° (ENE) 23:59:07 437.525
PRISM 26 Apr 23:58:06 00:01:00 19° 294° (WNW) 00:03:54 437.425
EO-79 27 Apr 00:03:56 00:07:12 22° 94° (E) 00:10:28 145.935-145.965
DUCHIFAT 1 27 Apr 00:05:59 00:08:58 19° 94° (E) 00:11:55 145.980
TIGRISAT 27 Apr 00:12:09 00:15:33 23° 292° (WNW) 00:18:58 435.000
ESTCUBE 1 27 Apr 00:13:31 00:17:47 42° 262° (W) 00:22:05 437.505/2401.250
VELOX 1 27 Apr 00:25:35 00:30:02 75° 75° (ENE) 00:34:30 145.980
UNISAT 6 27 Apr 00:34:31 00:36:38 14° 296° (WNW) 00:38:46 437.425
POLYITAN 1 27 Apr 00:42:34 00:46:44 61° 101° (E) 00:50:53 437.675
UKube-1 27 Apr 00:44:07 00:47:56 31° 69° (ENE) 00:51:46 .
BEESAT 2 27 Apr 00:44:52 00:47:51 20° 248° (WSW) 00:50:48 435.950
AIST 2D 27 Apr 00:44:56 00:48:22 50° 285° (WNW) 00:51:48 435.315
FO-29 27 Apr 00:46:07 00:50:05 22° 295° (WNW) 00:54:12 435.910
QB50P2 27 Apr 00:49:10 00:53:24 80° 104° (ESE) 00:57:35 145.880/145.840
50 SAT 27 Apr 01:05:41 01:09:07 58° 259° (W) 01:12:35 437.505
BUGSAT 1 27 Apr 01:06:40 01:10:06 27° 96° (E) 01:13:33 437.445
NANOSAT C BR1 27 Apr 01:10:56 01:15:07 69° 285° (WNW) 01:19:16 145.865
DX 1 27 Apr 01:16:50 01:21:12 79° 256° (WSW) 01:25:37 434.975-435.025
Oscar 19 27 Apr 01:18:33 01:21:22 15° 90° (E) 01:24:10 437.125/150
SPROUT 27 Apr 01:27:49 01:31:19 24° 265° (W) 01:34:49 437.525
NO-84 27 Apr 01:39:08 01:41:04 16° 26° (NNE) 01:42:58 435.350 FM
EO-79 27 Apr 01:39:17 01:42:59 30° 290° (WNW) 01:46:40 145.935-145.965
DUCHIFAT 1 27 Apr 01:40:55 01:44:44 35° 289° (WNW) 01:48:31 145.980
BEESAT 27 Apr 01:43:47 01:45:57 13° 60° (ENE) 01:48:06 436.000
PCSat 27 Apr 01:45:58 01:50:19 25° 108° (ESE) 01:54:42 145.827
POLYITAN 1 27 Apr 02:20:15 02:22:00 12° 297° (WNW) 02:23:45 437.675
UKube-1 27 Apr 02:20:31 02:23:58 23° 265° (W) 02:27:26 .
ITUPSAT 1 27 Apr 02:22:16 02:26:23 30° 67° (ENE) 02:30:29 437.325
BUGSAT 1 27 Apr 02:42:11 02:45:21 23° 292° (WNW) 02:48:30 437.445
Oscar 19 27 Apr 02:55:58 03:01:09 68° 287° (WNW) 03:06:18 437.125/150
Gurwin Techsat 1B 27 Apr 02:59:42 03:05:03 77° 103° (ESE) 03:10:21 435.225
AO-7 27 Apr 03:05:29 03:10:23 17° 90° (E) 03:15:15 .
MOZHAYETS 4 27 Apr 03:09:31 03:13:46 41° 71° (ENE) 03:18:03
YUBILEINY 27 Apr 03:12:46 03:18:13 19° 77° (ENE) 03:23:41 435.215
NO-84 27 Apr 03:16:00 03:18:50 55° 226° (SW) 03:21:36 435.350 FM
BEESAT 27 Apr 03:18:21 03:23:05 74° 257° (WSW) 03:27:51 436.000
KKS-1 27 Apr 03:22:55 03:24:08 11° 60° (ENE) 03:25:23 437.445
PCSat 27 Apr 03:28:13 03:33:25 46° 305° (NW) 03:38:39 145.827
ITUPSAT 1 27 Apr 04:00:01 04:04:08 29° 264° (W) 04:08:17 437.325
CUBESAT XI-V 27 Apr 04:01:49 04:05:40 26° 67° (ENE) 04:09:32 437.345
ITAMSAT 1 27 Apr 04:22:24 04:27:34 69° 103° (ESE) 04:32:43 435.822/435.867
Gurwin Techsat 1B 27 Apr 04:41:25 04:44:19 15° 300° (WNW) 04:47:12 435.225
MOZHAYETS 4 27 Apr 04:47:51 04:51:05 19° 267° (W) 04:54:21
KKS-1 27 Apr 04:55:34 05:00:02 80° 257° (WSW) 05:04:32 437.445
AO-7 27 Apr 04:55:51 05:04:13 85° 107° (ESE) 05:12:34 .
YUBILEINY 27 Apr 05:05:05 05:13:47 87° 277° (W) 05:22:33 435.215
STARS 27 Apr 05:26:12 05:30:37 86° 257° (WSW) 05:35:03 437.465
SO-50 27 Apr 05:35:03 05:37:41 15° 109° (ESE) 05:40:18 436.795
DOVE 4 27 Apr 05:38:14 05:38:44 10° 87° (E) 05:39:13 437.250
CUBESAT XI-V 27 Apr 05:38:45 05:42:53 32° 264° (W) 05:47:05 437.345
RS-15 27 Apr 05:43:36 05:51:00 19° 97° (E) 05:58:29 29.354- 29.394
ITAMSAT 1 27 Apr 06:03:25 06:06:27 16° 300° (WNW) 06:09:29 435.822/435.867
M-CUBED/EXP-1 PRIME 27 Apr 06:21:30 06:25:01 22° 60° (ENE) 06:28:33 437.505
XW-2F 27 Apr 06:22:11 06:24:47 17° 93° (E) 06:27:22 145.980 - 146.000
STRAND 1 27 Apr 06:25:06 06:28:43 20° 63° (ENE) 06:32:21 437.568
NUDT-PHONESAT 27 Apr 06:32:13 06:34:51 18° 94° (E) 06:37:29 437.300
AO-7 27 Apr 06:49:55 06:56:02 24° 308° (NW) 07:02:09 .
YUBILEINY 27 Apr 07:06:20 07:11:57 18° 299° (WNW) 07:17:36 435.215
XW-2D 27 Apr 07:11:12 07:15:01 77° 100° (E) 07:18:51 145.860 - 145.880
DOVE 4 27 Apr 07:12:26 07:17:03 72° 285° (WNW) 07:21:23 437.250
CUTE-I 27 Apr 07:12:43 07:17:58 59° 101° (E) 07:23:12 437.470
SO-50 27 Apr 07:13:05 07:17:39 62° 306° (NW) 07:22:12 436.795
XW-2B 27 Apr 07:18:09 07:21:59 89° 284° (WNW) 07:25:49 145.730 - 145.750
HO-68 27 Apr 07:26:29 07:32:00 23° 93° (E) 07:37:28 435.675
KAITUO 1B 27 Apr 07:26:34 07:30:21 88° 285° (WNW) 07:34:08 145.475/437.950
LilacSat-2 27 Apr 07:29:47 07:33:34 60° 285° (WNW) 07:37:22 437.200
XW-2C 27 Apr 07:30:09 07:33:55 62° 285° (WNW) 07:37:41 145.795 - 145.815
RS-15 27 Apr 07:49:20 08:01:20 78° 118° (ESE) 08:13:42 29.354- 29.394
M-CUBED/EXP-1 PRIME 27 Apr 07:54:42 07:59:06 45° 256° (WSW) 08:03:36 437.505
XW-2F 27 Apr 07:55:35 07:58:58 31° 289° (WNW) 08:02:22 145.980 - 146.000
CUBEBUG 2 27 Apr 07:59:52 08:02:14 15° 92° (E) 08:04:37 437.445
STRAND 1 27 Apr 08:02:32 08:07:30 52° 260° (W) 08:12:29 437.568
Tancredo 1 27 Apr 08:02:39 08:05:30 34° 137° (SE) 08:08:21 437.200
NUDT-PHONESAT 27 Apr 08:05:34 08:08:47 28° 289° (WNW) 08:12:01 437.300
XW-2A 27 Apr 08:06:44 08:09:53 37° 99° (E) 08:13:01 145.665 - 145.685
AAUSAT CUBESAT 2 27 Apr 08:14:37 08:17:01 15° 91° (E) 08:19:24 437.432
CUTE 1.7 + AOD 2 27 Apr 08:23:26 08:27:42 62° 101° (E) 08:31:57 437.475
ISS 27 Apr 08:27:40 08:30:49 49° 140° (SE) 08:33:59 437.550
ZACube-1 27 Apr 08:39:49 08:42:09 14° 92° (E) 08:44:30 437.345
SEEDS 27 Apr 08:42:22 08:46:38 66° 101° (ESE) 08:50:51 437.485
AO-73 27 Apr 08:46:10 08:48:42 15° 92° (E) 08:51:14 145.935
CUTE-I 27 Apr 08:53:54 08:57:32 19° 298° (WNW) 09:01:09 437.470
SO-50 27 Apr 08:57:40 08:59:01 11° 325° (NW) 09:00:23 436.795
Oscar 11 27 Apr 09:00:42 09:03:48 19° 93° (E) 09:06:53 .
PRISM 27 Apr 09:11:26 09:14:57 27° 68° (ENE) 09:18:29 437.425
HO-68 27 Apr 09:13:05 09:20:13 67° 290° (WNW) 09:27:20 435.675
FO-29 27 Apr 09:13:49 09:18:17 22° 64° (ENE) 09:22:26 435.910
UWE-3 27 Apr 09:20:25 09:24:37 73° 102° (ESE) 09:28:53 435.000/436.395/437.385
TIGRISAT 27 Apr 09:34:01 09:37:43 27° 69° (ENE) 09:41:22 435.000
CUBEBUG 2 27 Apr 09:35:06 09:39:05 45° 287° (WNW) 09:43:06 437.445
Tancredo 1 27 Apr 09:38:39 09:41:26 29° 335° (NNW) 09:44:12 437.200
XW-2A 27 Apr 09:41:01 09:42:17 12° 294° (WNW) 09:43:34 145.665 - 145.685
AAUSAT CUBESAT 2 27 Apr 09:48:41 09:52:43 45° 287° (WNW) 09:56:41 437.432
UNISAT 6 27 Apr 09:54:49 09:59:03 50° 73° (ENE) 10:03:13 437.425
O/OREOS (USA 219) 27 Apr 10:00:54 10:04:57 32° 104° (ESE) 10:09:02 437.305
CUTE 1.7 + AOD 2 27 Apr 10:01:07 10:03:00 13° 297° (WNW) 10:04:52 437.475
RS-15 27 Apr 10:03:55 10:15:07 40° 324° (NW) 10:26:31 29.354- 29.394
ISS 27 Apr 10:04:39 10:07:27 26° 337° (NNW) 10:10:16 437.550
ZACube-1 27 Apr 10:14:36 10:18:40 48° 287° (WNW) 10:22:48 437.345
SEEDS 27 Apr 10:20:08 10:21:45 12° 297° (WNW) 10:23:20 437.485
AO-73 27 Apr 10:21:07 10:25:09 45° 287° (WNW) 10:29:14 145.935
DELFI C3 27 Apr 10:26:53 10:30:47 48° 100° (E) 10:34:39 145.870
PCSat 27 Apr 10:33:00 10:37:23 24° 47° (NE) 10:41:43 145.827
Oscar 11 27 Apr 10:36:01 10:40:03 38° 289° (WNW) 10:44:05 .
PRISM 27 Apr 10:46:45 10:50:10 24° 264° (W) 10:53:37 437.425
FO-29 27 Apr 10:56:48 11:03:03 58° 258° (WSW) 11:08:39 435.910
EO-79 27 Apr 10:56:50 10:59:40 18° 65° (ENE) 11:02:28 145.935-145.965
OBJECT BX 27 Apr 10:58:09 11:01:50 89° 275° (W) 11:05:30 145.990 - 145.960
DUCHIFAT 1 27 Apr 10:58:30 11:00:54 15° 64° (ENE) 11:03:18 145.980
UWE-3 27 Apr 10:59:46 11:00:30 10° 298° (WNW) 11:01:13 435.000/436.395/437.385
HO-68 27 Apr 11:03:24 11:06:38 14° 310° (NW) 11:09:50 435.675
TIGRISAT 27 Apr 11:10:41 11:14:21 26° 264° (W) 11:17:59 435.000
Tancredo 1 27 Apr 11:16:30 11:18:05 13° 354° (N) 11:19:39 437.200
AIST 2D 27 Apr 11:19:00 11:22:22 50° 75° (ENE) 11:25:45 435.315
UNISAT 6 27 Apr 11:33:37 11:36:01 14° 268° (W) 11:38:24 437.425
POLYITAN 1 27 Apr 11:34:54 11:38:54 44° 72° (ENE) 11:42:55 437.675
O/OREOS (USA 219) 27 Apr 11:40:28 11:44:21 26° 302° (WNW) 11:48:16 437.305
QB50P2 27 Apr 11:41:23 11:45:32 58° 74° (ENE) 11:49:42 145.880/145.840
ISS 27 Apr 11:43:00 11:44:47 14° 357° (N) 11:46:34 437.550
BUGSAT 1 27 Apr 11:56:38 11:59:43 21° 67° (ENE) 12:02:48 437.445
LO-87 27 Apr 11:59:42 12:03:15 65° 101° (E) 12:06:46 145.935 - 145.965
NANOSAT C BR1 27 Apr 12:02:30 12:06:43 85° 74° (ENE) 12:10:56 145.865
DELFI C3 27 Apr 12:03:04 12:05:09 14° 295° (WNW) 12:07:12 145.870
ESTCUBE 1 27 Apr 12:05:37 12:09:54 39° 98° (E) 12:14:08 437.505/2401.250
PCSat 27 Apr 12:15:48 12:21:08 57° 245° (WSW) 12:26:25 145.827
VELOX 1 27 Apr 12:17:06 12:19:24 14° 91° (E) 12:21:41 145.980
RS-15 27 Apr 12:23:16 12:32:31 23° 357° (N) 12:41:43 29.354- 29.394
EO-79 27 Apr 12:31:07 12:35:06 41° 262° (W) 12:39:06 145.935-145.965
DUCHIFAT 1 27 Apr 12:32:06 12:36:10 48° 260° (W) 12:40:14 145.980
Oscar 19 27 Apr 12:35:02 12:38:59 23° 64° (ENE) 12:42:58 437.125/150
Gurwin Techsat 1B 27 Apr 12:43:31 12:46:49 17° 61° (ENE) 12:50:07 435.225
Tancredo 1 27 Apr 12:52:51 12:54:56 16° 15° (NNE) 12:57:01 437.200
AO-85 27 Apr 12:53:06 12:57:24 80° 122° (ESE) 13:01:29 145.980
BEESAT 3 27 Apr 12:58:30 13:00:50 15° 110° (ESE) 13:03:13 437.485
DX 1 27 Apr 13:05:55 13:08:51 17° 93° (E) 13:11:45 434.975-435.025
SPROUT 27 Apr 13:12:22 13:16:32 53° 100° (E) 13:20:40 437.525
POLYITAN 1 27 Apr 13:12:26 13:14:54 15° 268° (W) 13:17:23 437.675
ISS 27 Apr 13:19:43 13:22:12 20° 17° (NNE) 13:24:43 437.550
QB50P2 27 Apr 13:20:07 13:21:41 12° 270° (W) 13:23:13 145.880/145.840
BUGSAT 1 27 Apr 13:31:09 13:34:52 32° 262° (W) 13:38:36 437.445
ESTCUBE 1 27 Apr 13:43:01 13:46:25 21° 294° (WNW) 13:49:49 437.505/2401.250
VELOX 1 27 Apr 13:51:50 13:56:11 54° 287° (WNW) 14:00:28 145.980
50 SAT 27 Apr 14:01:50 14:05:15 55° 286° (WNW) 14:08:39 437.505
ITAMSAT 1 27 Apr 14:04:03 14:06:47 14° 60° (ENE) 14:09:31 435.822/435.867
AO-7 27 Apr 14:04:23 14:10:57 27° 55° (NE) 14:17:31 .
SO-50 27 Apr 14:04:47 14:07:49 17° 41° (NE) 14:10:51 436.795
UKube-1 27 Apr 14:06:15 14:10:31 55° 101° (E) 14:14:44 .
Oscar 19 27 Apr 14:13:02 14:17:58 46° 261° (W) 14:22:58 437.125/150
Gurwin Techsat 1B 27 Apr 14:20:54 14:26:11 68° 258° (WSW) 14:31:30 435.225
Tancredo 1 27 Apr 14:28:13 14:31:19 64° 33° (NNE) 14:34:23 437.200
BEESAT 3 27 Apr 14:34:14 14:38:02 46° 307° (NW) 14:41:55 437.485
BEESAT 2 27 Apr 14:34:50 14:38:45 67° 120° (ESE) 14:42:45 435.950
AO-85 27 Apr 14:36:15 14:38:16 13° 319° (NW) 14:40:15 145.980
RS-15 27 Apr 14:39:13 14:50:14 35° 32° (NNE) 15:00:51 29.354- 29.394
DX 1 27 Apr 14:41:06 14:45:12 41° 289° (WNW) 14:49:17 434.975-435.025
SPROUT 27 Apr 14:49:45 14:51:59 14° 296° (WNW) 14:54:13 437.525
ISS 27 Apr 14:55:48 14:59:04 90° 210° (SSW) 15:02:20 437.550
YUBILEINY 27 Apr 15:15:15 15:23:40 48° 75° (ENE) 15:32:03 435.215
BEESAT 27 Apr 15:18:42 15:22:45 27° 96° (E) 15:26:47 436.000
ITAMSAT 1 27 Apr 15:40:24 15:45:35 77° 257° (WSW) 15:50:48 435.822/435.867
UKube-1 27 Apr 15:43:46 15:46:04 14° 297° (WNW) 15:48:21 .
SO-50 27 Apr 15:44:16 15:48:45 69° 239° (WSW) 15:53:13 436.795
